Temp
71 71 69 66 56 54 49 54 60 60 61 64 64 62 63 63 60 58 64 67 69 70 73 75 74 75 75 75 75 75 75 76 76 75 75 75 75 76 76 76 75 76 75 75 75 75 74 74 73
69 71 66 58 51 46 50 56 57 61 63 62 63 63 63 61 61 59 63 67 71 72 74 75 72 74 74 74 74 74 75 76 76 76 76 74 75 75 75 76 75 76 75 75 76 74 74 73 73
70 70 61 55 49 47 50 57 60 63 61 62 61 63 62 61 60 62 66 69 72 72 74 74 72 73 74 74 74 74 75 75 76 76 76 74 75 75 75 75 74 75 75 75 74 74 73 72 72
66 64 59 50 47 53 57 61 63 60 63 64 62 60 62 64 63 66 68 71 71 71 73 72 73 74 74 74 74 74 75 76 75 76 76 74 75 75 74 75 76 74 75 75 74 73 72 72 71
62 57 49 46 49 55 57 62 62 60 62 61 63 57 58 63 66 66 70 71 69 70 72 73 72 73 73 73 74 74 74 75 74 75 75 74 74 73 73 73 73 73 73 73 73 72 71 70 70
57 54 44 43 48 56 60 63 64 62 62 60 61 58 59 62 64 66 71 71 71 69 70 72 68 70 71 73 73 73 74 74 74 74 74 73 73 73 73 73 73 72 72 72 72 71 70 69 68
52 48 44 46 49 53 58 63 62 63 61 60 63 57 57 58 64 68 71 70 70 70 69 70 71 70 67 69 70 71 72 72 73 72 72 72 71 71 71 71 72 72 72 71 70 69 69 68 67
53 51 45 46 48 50 61 61 65 65 63 64 65 58 57 60 66 69 69 68 68 68 68 69 69 70 70 71 66 67 69 70 70 69 68 67 67 68 68 67 70 71 71 69 68 68 67 67 66
55 47 41 45 49 53 61 59 63 65 62 62 64 62 64 63 67 67 65 65 65 67 67 68 68 68 68 69 66 65 66 66 66 66 63 64 69 69 69 65 68 69 68 67 66 66 64 63 62
53 43 45 51 54 56 60 59 60 60 59 60 60 60 61 63 64 63 62 63 64 64 66 68 67 67 67 69 67 69 69 69 69 68 68 68 68 68 67 63 62 66 65 66 65 64 61 60 60
53 48 49 54 57 58 57 58 60 58 55 61 59 57 58 60 62 63 64 65 65 66 66 68 67 66 66 67 66 67 67 67 67 66 66 67 67 67 67 67 67 66 63 64 64 63 63 62 62
48 52 53 55 57 56 55 59 57 58 62 65 64 61 59 59 60 62 63 66 65 65 66 68 68 65 65 66 66 66 66 65 65 65 66 66 65 65 66 66 65 64 62 61 61 61 60 60 59
48 51 54 55 55 54 56 54 56 56 62 64 61 59 59 59 61 63 66 67 67 64 66 67 67 66 65 65 65 65 65 65 65 64 66 66 65 65 65 64 64 63 62 60 60 60 59 59 58
47 48 48 52 54 54 52 52 55 58 61 61 58 58 60 60 61 61 62 63 66 66 66 67 67 66 65 65 64 65 64 64 64 65 66 66 66 66 65 64 62 62 62 61 61 60 59 58 58
46 42 47 48 51 52 54 49 51 58 60 58 57 58 59 61 62 61 62 63 66 67 67 66 67 66 65 66 64 65 64 64 63 65 65 65 66 66 66 62 61 61 61 60 60 59 58 57 56
40 42 36 48 50 51 53 43 54 58 58 58 58 57 58 60 61 63 64 65 66 67 65 65 67 65 64 65 64 64 63 63 63 64 65 65 65 66 65 62 61 60 60 60 60 58 57 55 52
35 29 35 41 51 50 49 46 56 59 55 57 58 58 58 59 61 63 65 67 67 67 66 65 65 65 64 63 64 64 63 63 63 64 64 65 65 65 64 62 60 60 59 59 59 57 56 52 50
27 28 33 35 45 48 46 45 52 54 53 57 58 59 58 58 60 63 64 68 68 69 69 66 64 64 64 63 63 62 62 62 62 63 63 64 65 64 63 61 59 60 58 57 57 55 54 52 51
33 31 29 35 45 42 44 45 49 54 52 52 53 55 57 58 63 64 63 66 66 67 65 64 63 63 63 62 61 61 60 61 60 61 63 64 64 63 62 60 59 59 58 57 56 53 50 49 50
32 30 29 35 40 40 40 40 48 52 53 54 54 56 58 59 59 61 62 63 64 64 64 63 63 63 63 64 64 65 63 61 63 61 62 63 62 62 61 59 58 59 58 56 54 53 50 49 50
31 29 30 31 36 40 37 35 42 48 53 56 58 60 58 60 58 60 60 62 63 63 63 63 64 63 64 65 64 58 59 57 57 57 60 60 62 61 60 59 59 58 58 55 54 53 52 48 49
28 36 35 33 31 25 37 24 39 46 49 53 56 58 61 59 60 60 59 60 62 63 65 65 65 64 64 65 63 61 61 60 60 62 61 59 60 60 59 59 58 58 58 56 55 55 53 49 49
31 38 34 33 30 28 30 23 33 43 44 48 53 57 61 65 61 60 60 60 63 64 64 65 65 64 65 64 64 62 62 63 59 58 58 59 58 59 58 58 56 56 57 57 56 54 53 51 50
39 35 34 33 29 21 29 27 28 37 44 50 53 56 60 62 64 62 62 62 62 64 64 64 64 64 64 64 64 63 62 62 56 57 57 58 58 57 57 56 56 56 56 56 55 55 54 53 52
35 30 21 19 19 19 32 27 32 41 46 50 53 57 59 63 62 61 60 61 61 61 63 63 63 63 64 63 64 63 64 63 59 58 59 58 56 54 55 55 54 54 55 56 56 53 53 51 50
31 31 23 11 15 22 31 24 33 45 50 53 53 53 59 61 63 63 64 63 62 61 62 63 62 63 64 63 63 64 64 64 61 60 61 59 59 58 57 54 54 54 54 55 55 54 54 51 51
31 27 35 25 24 23 28 33 42 44 45 45 45 46 46 51 61 61 64 65 64 63 62 63 63 63 64 63 64 64 64 64 61 61 61 61 59 58 54 54 54 53 52 53 53 53 52 51 50
34 38 26 27 13 17 23 29 29 35 39 40 40 41 44 46 49 54 62 63 64 64 63 64 64 63 64 64 64 64 64 63 64 60 58 60 58 55 53 53 53 52 52 51 50 50 50 48 47
31 30 34 33 29 22 20 25 37 37 39 37 39 41 42 44 45 48 52 59 61 63 63 62 62 63 63 64 64 63 63 62 63 59 59 59 56 54 54 53 52 51 50 50 49 48 47 47 44
38 34 35 26 24 27 26 27 40 40 40 39 39 42 44 45 46 47 47 49 53 57 58 60 61 62 62 63 63 62 62 60 61 59 58 58 55 54 55 53 52 51 51 50 49 47 47 46 43
MSLP
1015.41 1015.05 1015.32 1015.97 1016.61 1016.59 1015.99 1015.47 1014.92 1014.74 1014.74 1014.71 1015.01 1015.68 1015.86 1016.26 1016.91 1017.75 1017.31 1017.41 1017.47 1017.74 1018.24 1018.70 1019.02 1019.29 1019.65 1020.00 1020.35 1020.82 1021.17 1021.42 1021.73 1022.04 1022.36 1022.55 1022.69 1022.71 1022.87 1022.82 1022.92 1023.08 1023.31 1023.45 1023.48 1023.55 1023.61 1023.62 1023.68
1015.59 1015.19 1015.53 1016.31 1016.48 1016.67 1015.96 1015.17 1014.69 1014.44 1014.50 1014.76 1015.13 1015.58 1015.98 1016.46 1016.78 1017.32 1017.52 1017.52 1017.46 1017.70 1018.23 1018.65 1019.06 1019.42 1019.78 1020.24 1020.58 1020.94 1021.24 1021.52 1021.81 1022.15 1022.45 1022.69 1022.89 1023.01 1023.17 1023.16 1023.12 1023.22 1023.52 1023.57 1023.63 1023.88 1023.89 1023.98 1024.05
1015.67 1015.57 1015.90 1016.56 1016.61 1016.09 1015.68 1014.75 1014.30 1014.44 1014.67 1014.86 1015.20 1015.77 1016.04 1016.47 1016.94 1017.17 1017.27 1017.44 1017.51 1017.68 1018.22 1018.58 1019.11 1019.58 1019.96 1020.38 1020.73 1021.04 1021.33 1021.60 1021.82 1022.26 1022.57 1022.88 1023.05 1023.25 1023.35 1023.40 1023.44 1023.56 1023.79 1023.91 1024.04 1024.16 1024.24 1024.35 1024.45
1015.88 1016.25 1016.77 1016.60 1016.44 1015.54 1014.79 1014.31 1014.29 1014.70 1014.87 1014.84 1015.01 1015.89 1016.43 1016.62 1016.70 1017.04 1017.32 1017.19 1017.52 1018.01 1018.34 1018.89 1019.16 1019.49 1020.10 1020.51 1020.88 1021.15 1021.45 1021.61 1021.93 1022.25 1022.66 1023.02 1023.21 1023.43 1023.69 1023.64 1023.54 1023.91 1024.03 1024.16 1024.34 1024.41 1024.69 1024.81 1024.89
1016.36 1017.02 1017.17 1016.79 1016.12 1015.41 1014.64 1014.06 1014.16 1014.50 1014.56 1014.84 1015.02 1015.83 1016.56 1016.77 1016.75 1017.14 1017.36 1017.35 1017.53 1018.11 1018.57 1019.02 1019.39 1019.66 1020.15 1020.57 1020.98 1021.33 1021.52 1021.75 1022.04 1022.32 1022.83 1023.23 1023.43 1023.67 1023.90 1023.90 1024.05 1024.23 1024.38 1024.53 1024.63 1024.83 1025.10 1025.26 1025.32
1017.07 1017.60 1017.77 1017.10 1016.08 1015.06 1014.41 1013.80 1013.86 1014.18 1014.46 1014.97 1015.17 1015.96 1016.72 1017.02 1016.92 1017.32 1017.51 1017.78 1017.78 1018.18 1018.72 1019.18 1019.56 1019.93 1020.28 1020.65 1020.99 1021.39 1021.63 1021.90 1022.18 1022.36 1023.10 1023.42 1023.63 1023.79 1024.03 1024.15 1024.33 1024.51 1024.64 1024.78 1024.99 1025.22 1025.43 1025.66 1025.84
1017.32 1017.85 1017.63 1017.12 1016.19 1015.15 1014.23 1013.82 1013.58 1013.59 1014.22 1014.55 1014.69 1015.87 1016.91 1017.14 1017.04 1017.14 1017.61 1018.00 1018.26 1018.51 1018.90 1019.30 1019.68 1020.11 1020.45 1020.79 1021.06 1021.44 1021.66 1022.03 1022.27 1022.73 1023.22 1023.58 1023.86 1024.04 1024.23 1024.40 1024.46 1024.65 1024.82 1025.12 1025.41 1025.71 1025.89 1026.15 1026.23
1017.56 1017.83 1017.65 1016.90 1016.16 1015.01 1013.91 1013.64 1013.36 1013.22 1013.68 1014.19 1014.56 1015.18 1016.05 1016.19 1016.79 1017.10 1017.77 1018.25 1018.60 1018.83 1019.09 1019.41 1019.76 1020.11 1020.50 1020.89 1021.22 1021.56 1021.91 1022.12 1022.51 1023.04 1023.44 1023.76 1024.06 1024.32 1024.53 1024.70 1024.68 1024.70 1025.03 1025.44 1025.81 1026.07 1026.29 1026.52 1026.75
1017.55 1017.77 1017.27 1016.68 1015.89 1014.84 1013.95 1013.64 1013.31 1013.32 1013.53 1013.92 1014.50 1014.73 1014.65 1015.25 1016.48 1017.18 1017.81 1018.41 1018.61 1018.94 1019.22 1019.57 1019.87 1020.20 1020.54 1020.99 1021.42 1021.77 1022.08 1022.38 1022.78 1023.29 1023.65 1023.96 1024.22 1024.46 1024.66 1024.89 1024.96 1025.05 1025.48 1025.82 1026.15 1026.48 1026.75 1027.07 1027.32
1017.34 1017.37 1016.72 1016.11 1015.39 1014.83 1014.18 1013.90 1013.54 1013.76 1013.81 1014.00 1014.50 1015.20 1015.52 1015.50 1016.01 1016.75 1017.12 1017.75 1018.06 1018.52 1018.93 1019.32 1019.85 1020.22 1020.66 1020.99 1021.56 1021.83 1022.25 1022.59 1023.03 1023.33 1023.72 1024.06 1024.36 1024.59 1024.84 1025.14 1025.20 1025.47 1025.96 1026.29 1026.51 1026.91 1027.15 1027.40 1027.74
1016.66 1016.46 1016.52 1015.70 1015.18 1014.86 1014.58 1014.29 1013.91 1013.75 1013.94 1013.39 1013.67 1015.01 1015.94 1015.68 1015.97 1016.53 1016.86 1017.19 1017.74 1018.19 1018.72 1019.04 1019.63 1020.23 1020.60 1020.94 1021.41 1021.89 1022.27 1022.70 1023.23 1023.46 1023.80 1024.14 1024.42 1024.70 1024.99 1025.28 1025.56 1025.87 1026.31 1026.70 1027.05 1027.28 1027.47 1027.73 1027.98
1016.74 1016.42 1016.24 1015.81 1015.37 1015.23 1015.00 1014.63 1014.28 1013.94 1013.31 1013.25 1013.21 1013.92 1015.63 1015.52 1015.41 1015.69 1016.29 1016.62 1017.35 1017.87 1018.34 1018.75 1019.22 1020.08 1020.52 1020.99 1021.39 1021.80 1022.22 1022.62 1023.15 1023.52 1023.76 1024.08 1024.37 1024.70 1025.00 1025.26 1025.69 1026.04 1026.56 1026.94 1027.32 1027.65 1027.99 1028.18 1028.49
1017.19 1016.83 1016.50 1016.23 1015.97 1015.80 1015.34 1015.01 1014.69 1013.92 1013.50 1013.60 1013.90 1014.15 1014.52 1014.89 1015.06 1015.63 1016.12 1016.57 1017.09 1017.67 1018.29 1018.60 1018.86 1019.59 1020.26 1020.81 1021.28 1021.64 1022.11 1022.51 1022.88 1023.41 1023.67 1023.97 1024.25 1024.53 1024.90 1025.34 1025.68 1026.10 1026.56 1027.00 1027.47 1027.86 1028.11 1028.46 1028.80
1018.31 1017.67 1017.22 1016.76 1016.34 1016.00 1015.67 1015.00 1014.67 1013.92 1013.73 1013.67 1014.07 1014.08 1014.16 1014.46 1014.77 1015.29 1015.68 1016.06 1016.32 1017.12 1017.74 1018.41 1018.84 1019.27 1020.06 1020.53 1021.07 1021.40 1021.91 1022.38 1022.82 1023.20 1023.50 1023.82 1024.13 1024.43 1024.75 1025.26 1025.69 1026.17 1026.55 1026.95 1027.34 1027.83 1028.27 1028.72 1029.12
1018.82 1018.49 1017.49 1016.76 1016.39 1015.85 1015.56 1014.27 1013.68 1014.12 1014.05 1014.18 1014.31 1014.40 1014.44 1014.24 1014.69 1014.43 1014.42 1015.26 1015.91 1016.62 1017.49 1018.10 1018.61 1019.05 1019.76 1020.21 1020.89 1021.21 1021.63 1022.16 1022.62 1022.98 1023.33 1023.55 1023.89 1024.20 1024.54 1025.13 1025.68 1026.20 1026.64 1027.08 1027.57 1027.96 1028.44 1028.91 1029.37
1019.46 1018.94 1018.23 1016.42 1016.08 1015.68 1015.71 1012.08 1013.36 1013.50 1013.89 1013.93 1014.09 1014.23 1014.55 1014.46 1013.64 1014.49 1014.92 1015.19 1015.58 1016.56 1017.33 1018.07 1018.45 1018.86 1019.34 1019.82 1020.51 1020.98 1021.49 1021.88 1022.34 1022.68 1023.08 1023.36 1023.65 1023.87 1024.37 1024.87 1025.56 1026.19 1026.65 1026.96 1027.36 1027.81 1028.32 1029.09 1029.73
1019.94 1019.11 1017.73 1017.03 1016.00 1015.63 1014.82 1012.65 1012.90 1013.43 1013.62 1013.43 1013.48 1013.57 1013.77 1014.24 1014.19 1013.68 1014.07 1014.74 1015.22 1015.86 1016.79 1017.51 1018.18 1018.44 1018.95 1019.52 1020.11 1020.66 1021.20 1021.59 1021.99 1022.41 1022.67 1022.98 1023.33 1023.62 1024.09 1024.66 1025.35 1025.95 1026.51 1026.90 1027.20 1027.86 1028.20 1029.27 1030.13
1020.20 1019.79 1018.50 1017.37 1016.27 1015.54 1014.77 1013.81 1013.55 1013.22 1013.36 1012.91 1012.85 1012.98 1013.07 1013.35 1013.10 1013.04 1013.17 1014.00 1014.51 1015.09 1015.90 1016.82 1017.68 1017.99 1018.64 1019.21 1019.84 1020.39 1020.91 1021.24 1021.66 1022.01 1022.31 1022.59 1022.92 1023.34 1023.84 1024.53 1025.09 1025.64 1026.27 1026.84 1027.26 1027.81 1028.70 1029.44 1030.08
1020.39 1020.03 1019.16 1018.20 1017.11 1016.46 1015.03 1014.53 1014.22 1013.62 1013.20 1012.90 1012.33 1012.32 1012.20 1012.21 1012.41 1013.05 1012.98 1013.40 1014.16 1014.60 1015.41 1016.19 1016.95 1017.49 1018.12 1018.70 1019.28 1019.97 1020.21 1020.84 1021.32 1021.64 1021.85 1022.26 1022.57 1023.02 1023.55 1024.17 1024.87 1025.37 1025.71 1026.30 1027.09 1028.16 1028.81 1029.90 1030.44
1020.54 1020.21 1018.46 1019.11 1018.47 1017.87 1016.04 1014.65 1014.32 1013.53 1012.78 1012.34 1011.98 1011.63 1011.57 1011.47 1011.93 1012.32 1012.61 1012.89 1013.26 1013.84 1014.59 1015.34 1015.81 1016.56 1017.18 1017.69 1018.39 1019.00 1019.56 1020.23 1020.55 1021.15 1021.44 1021.79 1022.21 1022.63 1023.14 1023.69 1024.37 1024.93 1025.48 1026.34 1027.00 1027.62 1028.73 1029.58 1029.84
1020.05 1020.05 1019.72 1019.27 1018.56 1017.54 1017.19 1014.82 1014.08 1012.76 1012.13 1011.46 1010.97 1010.71 1010.68 1010.51 1010.81 1011.45 1012.03 1012.06 1012.59 1013.13 1013.45 1014.10 1014.92 1015.57 1016.19 1016.92 1017.93 1018.56 1019.38 1020.07 1020.48 1020.76 1020.98 1021.24 1021.73 1022.20 1022.60 1023.17 1023.75 1024.40 1024.82 1025.59 1026.34 1026.96 1027.43 1028.41 1029.39
1019.72 1019.46 1019.36 1019.45 1019.19 1017.77 1016.69 1013.94 1013.13 1011.88 1010.63 1009.98 1009.47 1009.35 1009.31 1009.50 1009.83 1010.36 1011.29 1011.74 1011.60 1011.59 1012.77 1013.32 1013.99 1014.62 1015.47 1016.10 1016.95 1017.39 1017.67 1018.33 1018.66 1019.29 1020.09 1020.52 1021.11 1021.58 1022.09 1022.65 1023.28 1023.76 1024.29 1024.88 1025.53 1026.20 1026.72 1027.25 1027.99
1018.80 1018.57 1018.59 1018.89 1018.36 1017.97 1016.89 1016.29 1012.51 1012.36 1010.24 1008.92 1008.59 1008.12 1008.23 1008.27 1008.99 1009.27 1009.81 1010.54 1010.43 1011.15 1011.85 1012.64 1013.35 1013.90 1014.57 1014.88 1015.65 1016.37 1016.88 1017.13 1018.03 1018.88 1019.60 1020.10 1020.67 1020.98 1021.51 1022.07 1022.76 1023.22 1023.62 1024.15 1024.68 1025.56 1026.09 1026.42 1026.93
1017.91 1018.45 1018.33 1018.62 1018.49 1017.47 1016.21 1015.65 1012.28 1011.57 1009.68 1008.63 1007.78 1007.31 1006.92 1007.24 1007.75 1008.28 1008.43 1009.19 1010.01 1010.65 1011.05 1011.68 1012.19 1012.63 1013.40 1013.98 1014.67 1015.16 1015.64 1016.47 1017.44 1018.18 1018.84 1019.50 1020.13 1020.63 1021.03 1021.50 1022.02 1022.54 1022.94 1023.35 1023.93 1024.43 1025.09 1025.65 1026.11
1017.69 1017.84 1017.97 1018.08 1017.58 1015.88 1014.58 1014.18 1011.85 1010.27 1009.11 1008.16 1007.33 1006.53 1006.29 1006.36 1006.67 1007.22 1007.75 1008.30 1009.12 1009.67 1009.78 1010.48 1011.19 1011.71 1012.33 1013.08 1013.70 1014.13 1014.67 1015.55 1016.24 1017.04 1017.73 1018.57 1019.40 1019.97 1020.37 1020.85 1021.45 1021.98 1022.23 1022.66 1023.08 1023.70 1024.13 1024.84 1025.35
1015.57 1015.84 1016.06 1016.40 1016.16 1014.66 1013.21 1011.74 1009.55 1008.55 1008.71 1007.92 1007.06 1006.63 1005.95 1005.71 1005.71 1005.95 1006.07 1006.49 1007.36 1008.20 1008.71 1009.13 1009.97 1010.59 1011.19 1011.75 1012.40 1013.22 1013.95 1014.64 1015.28 1015.95 1016.69 1017.34 1017.99 1018.68 1019.27 1020.05 1020.49 1020.98 1021.49 1022.02 1022.48 1022.86 1023.20 1023.81 1024.48
1015.22 1015.24 1015.04 1015.58 1014.77 1014.15 1011.88 1010.22 1008.69 1008.10 1008.02 1008.31 1007.99 1007.65 1007.04 1006.37 1005.74 1005.75 1005.82 1005.93 1006.25 1006.77 1007.58 1007.79 1008.55 1009.42 1010.17 1010.51 1011.37 1012.18 1012.97 1013.63 1014.22 1015.01 1015.67 1016.43 1017.05 1017.70 1018.41 1019.02 1019.70 1020.32 1020.81 1021.22 1021.73 1022.01 1022.36 1023.02 1023.45
1015.03 1014.70 1015.33 1015.81 1015.54 1013.68 1011.47 1010.75 1010.54 1009.67 1009.81 1010.28 1009.09 1008.73 1008.07 1007.31 1006.58 1006.05 1005.64 1005.69 1005.96 1006.15 1006.77 1007.52 1007.72 1008.12 1008.60 1009.66 1010.40 1010.91 1011.62 1012.54 1013.25 1014.15 1014.81 1015.46 1016.10 1016.77 1017.57 1018.25 1018.76 1019.33 1019.83 1020.46 1021.12 1021.38 1021.69 1022.43 1022.80
1014.98 1014.35 1013.97 1014.21 1014.47 1013.69 1012.56 1011.93 1011.53 1011.39 1011.75 1010.25 1009.86 1009.38 1008.70 1008.24 1007.47 1007.03 1006.58 1005.73 1005.71 1005.86 1006.47 1006.95 1007.51 1007.96 1008.40 1008.97 1009.61 1010.38 1010.97 1011.71 1012.44 1013.14 1013.83 1014.42 1015.28 1015.79 1016.54 1017.06 1017.66 1018.33 1018.96 1019.51 1020.07 1020.59 1021.01 1021.30 1022.08
1013.30 1013.54 1013.46 1013.50 1013.53 1013.97 1013.81 1012.57 1011.95 1011.45 1010.68 1010.52 1010.41 1010.10 1009.76 1009.06 1008.53 1007.60 1007.19 1006.87 1006.73 1006.65 1006.67 1006.77 1007.19 1007.56 1007.99 1008.51 1009.04 1009.67 1010.44 1011.15 1011.66 1012.18 1012.76 1013.58 1014.10 1014.73 1015.29 1016.03 1016.70 1017.32 1017.84 1018.55 1019.06 1019.31 1019.95 1020.43 1021.24
Wind_Speed
5 2 2 3 2 3 2 5 1 2 2 4 6 5 6 2 5 2 2 5 10 14 12 14 16 16 19 19 19 17 16 17 17 16 16 15 14 13 13 13 13 16 14 14 13 14 13 15 15
4 1 3 2 4 1 4 3 5 4 2 7 6 4 2 2 1 3 7 6 14 14 12 12 12 17 19 18 19 17 16 16 17 16 15 14 14 12 12 12 11 17 14 13 14 13 14 15 17
2 3 3 2 2 6 5 5 5 1 7 3 5 2 4 2 1 9 2 13 14 14 12 13 16 19 19 18 18 17 16 16 17 17 15 14 13 12 12 10 16 16 13 12 13 13 15 18 18
2 3 3 3 5 5 6 2 2 5 3 1 3 6 2 2 6 4 13 16 15 13 14 15 19 21 19 18 17 16 16 15 17 16 14 14 12 12 11 10 12 13 13 13 14 15 18 19 18
3 2 1 3 5 4 4 2 5 5 3 3 2 5 1 2 6 12 15 14 16 14 14 15 16 18 18 17 16 15 15 15 17 16 13 13 13 13 11 13 13 14 13 13 14 17 19 19 19
2 2 0 4 4 4 3 4 5 4 3 3 4 7 4 2 12 15 14 13 13 15 12 13 13 13 15 16 15 15 14 14 15 18 13 12 12 13 11 13 12 12 12 14 16 19 19 19 18
4 3 4 3 3 4 3 2 4 6 5 5 5 6 2 4 9 14 13 11 11 13 12 11 11 12 11 11 12 11 11 15 15 15 12 11 11 11 11 9 10 12 14 15 19 18 18 17 18
4 3 2 4 4 5 3 4 3 6 6 2 3 6 6 7 16 12 11 11 10 10 11 11 11 11 10 9 10 11 10 11 15 11 12 11 11 10 9 7 5 14 18 19 18 17 18 18 18
3 2 5 6 6 5 1 4 0 2 6 3 3 1 2 22 20 14 11 11 10 11 12 11 11 10 10 9 8 10 11 12 12 10 10 9 7 7 7 6 7 15 18 18 18 18 18 18 17
5 4 8 5 4 4 4 3 2 2 3 3 3 4 13 23 21 19 17 16 16 15 13 13 11 10 10 8 9 9 8 8 8 8 9 6 7 6 7 7 9 18 17 17 18 17 16 10 6
5 13 4 3 5 3 3 4 1 4 4 6 9 10 16 21 18 19 19 17 15 15 11 13 12 10 10 8 7 5 5 5 5 8 7 7 5 5 4 4 6 9 13 7 9 9 7 9 7
8 4 5 3 4 2 2 5 5 4 4 2 6 19 19 20 23 23 22 21 17 16 16 14 14 12 10 7 7 7 6 6 5 6 9 6 4 5 5 4 5 7 6 9 7 6 9 10 10
5 4 5 5 7 6 6 6 6 7 6 5 7 16 20 18 18 16 16 17 16 16 17 16 13 13 11 11 8 8 7 6 7 7 8 6 6 6 5 5 5 6 7 8 8 8 8 9 10
6 5 6 5 7 4 5 7 5 5 5 4 8 14 16 18 19 15 16 16 20 18 17 17 15 13 13 10 11 8 7 7 7 7 7 8 6 6 6 5 6 7 7 7 8 8 8 8 8
5 6 10 2 1 5 0 18 19 6 4 6 6 5 10 15 15 21 19 18 17 18 18 18 16 13 14 13 11 8 7 7 7 7 9 9 8 8 8 6 6 7 7 10 9 9 8 7 7
5 1 4 3 7 7 9 28 4 10 10 14 8 6 9 14 18 13 13 14 16 15 15 15 14 14 15 13 10 8 7 7 6 7 7 9 9 9 8 7 7 8 8 9 8 8 7 7 7
2 5 11 9 12 8 17 19 17 9 8 14 11 9 10 11 12 16 15 15 16 17 17 18 18 18 17 12 9 9 9 7 6 7 7 9 9 9 8 7 8 10 8 8 8 7 7 7 7
6 5 5 8 2 6 15 16 10 7 8 16 12 12 11 12 20 16 16 15 15 17 18 16 14 16 15 10 8 6 6 6 6 7 7 10 8 10 9 8 10 10 9 8 7 9 6 7 8
3 3 5 4 3 7 16 11 10 9 9 11 9 10 11 13 11 12 14 17 15 15 15 16 16 15 12 10 10 8 9 7 6 6 9 9 9 10 10 8 10 9 10 10 10 8 10 6 7
7 10 17 3 8 6 13 18 13 13 16 13 12 13 14 12 9 13 16 17 19 18 18 18 18 17 14 10 10 6 8 5 6 6 8 9 9 10 10 11 10 11 9 11 12 10 7 3 9
16 14 6 8 5 11 10 21 16 14 17 17 17 16 11 15 14 15 16 20 17 19 21 20 19 18 16 14 9 4 4 3 5 5 8 8 11 11 11 11 10 11 10 10 12 11 10 6 8
15 12 16 7 5 6 6 16 17 9 20 21 21 21 21 16 12 13 14 16 20 22 18 19 19 18 16 16 14 16 12 10 8 9 7 8 11 11 11 11 11 11 9 11 12 10 9 6 10
10 8 13 12 14 4 13 7 6 13 18 19 20 22 22 22 16 17 17 19 21 17 18 17 18 18 18 18 17 14 14 10 5 5 10 9 9 11 11 11 11 11 9 10 13 13 11 8 7
1 7 4 4 5 10 17 11 5 13 19 13 18 20 24 21 19 18 18 18 14 15 16 17 20 20 19 19 20 19 19 14 8 9 9 9 7 8 10 11 11 10 11 12 12 13 14 12 7
14 7 3 5 7 9 11 12 15 12 15 15 17 19 20 22 20 19 17 16 15 18 20 18 20 20 20 20 20 20 19 16 15 13 11 11 9 7 11 11 10 9 11 11 11 12 13 12 10
19 12 6 7 4 11 6 10 8 19 19 24 8 9 15 19 20 22 23 21 19 20 21 21 21 21 21 21 21 18 18 12 12 13 11 10 10 11 12 12 11 12 12 11 11 9 11 12 11
7 10 10 3 4 7 6 5 3 7 8 10 7 7 7 6 13 17 18 18 19 18 21 23 22 21 20 22 18 18 16 17 14 14 13 11 11 9 12 14 13 12 12 12 12 10 12 11 12
0 5 4 3 4 6 5 1 3 13 10 12 7 8 7 6 7 7 11 13 13 15 16 17 19 22 22 18 17 17 18 17 14 12 15 14 12 12 12 13 14 13 12 12 12 9 9 11 9
5 4 4 5 2 4 6 3 7 7 10 5 6 7 10 9 6 5 6 3 8 10 13 15 16 16 17 16 16 15 15 15 15 13 14 15 12 13 14 15 14 14 14 13 13 11 11 13 11
10 7 5 4 5 4 6 4 6 7 7 7 7 10 11 11 11 10 11 11 7 3 7 11 12 13 13 13 14 14 13 13 15 15 15 14 15 14 15 13 13 14 14 14 15 15 14 15 13
Wind_Direction
323 38 74 14 75 61 232 240 245 233 198 162 130 150 185 125 167 199 341 172 145 144 154 158 156 162 144 134 129 132 134 131 121 117 115 116 107 103 96 88 97 97 84 91 87 78 69 88 82
315 60 69 77 109 152 258 242 218 220 143 132 110 111 134 166 96 110 136 158 146 141 154 167 157 148 137 133 133 135 137 133 129 120 119 110 106 103 95 92 90 93 93 86 87 72 81 83 79
291 353 98 134 163 186 214 215 229 129 147 189 116 39 143 154 97 162 169 147 135 133 142 144 139 139 135 137 139 141 143 140 138 127 118 115 110 105 102 91 92 92 91 89 88 80 85 82 75
50 356 41 127 217 257 192 245 198 131 259 250 141 112 86 279 154 182 149 142 128 123 128 134 140 136 139 141 143 143 147 145 138 124 125 120 117 113 111 104 95 93 91 93 86 90 89 82 76
35 57 181 194 224 264 247 226 160 185 171 170 206 167 126 78 118 137 156 148 136 132 133 135 137 139 143 144 147 150 156 151 140 124 127 124 119 116 109 106 101 98 97 93 88 92 87 83 78
73 91 114 223 226 226 270 231 156 186 160 158 117 138 149 117 136 151 158 150 142 138 136 140 137 140 145 153 155 158 162 157 139 116 133 131 128 119 111 106 109 106 105 99 95 95 91 87 80
133 110 212 227 243 269 233 183 203 179 159 230 149 139 138 174 162 153 153 140 145 143 141 141 145 146 143 143 141 145 153 143 120 121 136 127 114 118 115 115 122 113 103 100 97 95 94 87 85
111 118 228 226 203 263 222 174 291 169 195 88 162 183 187 181 162 154 147 140 147 149 149 150 149 149 147 147 139 133 127 123 115 131 119 115 112 110 108 102 101 120 108 103 105 101 96 90 80
143 194 211 211 186 240 210 205 97 338 130 168 202 173 323 139 156 151 151 156 161 160 161 158 155 153 148 146 141 130 130 121 123 123 121 117 128 125 116 87 83 111 109 109 107 106 98 86 79
181 201 222 214 198 265 288 207 194 180 176 202 138 47 129 148 159 168 170 176 179 168 167 170 163 157 150 149 149 143 139 137 142 142 138 133 134 128 109 81 66 109 109 111 110 105 94 82 76
200 234 209 241 233 265 279 295 256 156 243 212 190 154 163 162 165 176 182 183 183 170 172 172 168 160 158 157 153 151 148 143 147 149 143 143 137 129 117 106 106 113 115 110 106 102 94 98 91
233 240 199 217 287 313 262 304 295 217 236 74 195 158 168 175 176 179 184 185 177 177 180 175 169 170 165 157 161 160 158 156 155 164 154 153 144 143 135 122 132 128 124 119 118 109 108 99 93
273 270 291 296 296 298 323 267 258 275 275 307 131 160 178 188 182 181 182 184 177 180 186 185 169 175 169 165 169 166 168 168 164 167 169 160 155 155 143 131 141 137 135 129 126 122 117 105 101
337 314 288 288 296 267 279 268 196 270 344 275 173 190 187 190 188 172 180 185 188 184 186 187 182 175 175 174 178 174 169 171 167 173 177 173 168 163 156 143 140 142 138 135 132 129 119 109 104
311 308 307 270 217 253 185 263 242 234 324 302 253 241 208 198 188 197 182 184 186 191 188 190 188 178 181 180 185 178 176 170 176 183 184 184 175 174 166 151 149 144 140 132 128 126 118 115 102
18 320 267 168 187 217 156 260 309 206 220 249 247 220 218 218 200 195 193 189 179 183 187 186 189 185 184 185 185 179 178 177 184 186 188 189 184 175 164 155 153 147 146 145 144 140 124 116 110
217 225 220 258 242 232 205 260 249 231 216 244 240 221 209 221 214 195 190 191 181 182 184 191 193 191 189 180 176 179 180 184 190 192 191 192 187 172 164 160 151 153 152 154 150 143 135 128 117
190 229 225 217 209 225 248 254 264 292 226 230 229 222 213 208 217 199 180 192 191 193 195 185 193 190 187 174 170 177 186 192 190 196 197 191 186 174 164 158 155 157 156 156 150 142 126 135 134
47 342 283 351 298 323 270 278 298 265 242 242 227 222 212 216 218 202 185 185 186 189 188 189 189 187 181 179 181 193 199 196 197 199 197 195 185 175 169 162 161 165 165 164 153 131 131 125 137
255 255 260 297 274 279 290 280 274 271 266 237 241 231 227 224 184 195 191 186 191 188 189 192 191 187 189 185 188 192 182 198 202 191 197 196 183 177 171 166 170 173 158 159 159 151 144 120 182
238 241 263 237 325 283 297 283 275 245 248 251 242 237 224 221 200 200 193 195 187 193 195 192 192 188 189 186 176 122 117 117 171 192 201 197 187 180 176 174 171 173 169 170 171 167 166 153 197
254 221 242 235 202 240 150 276 253 256 233 231 232 231 230 220 206 192 200 200 197 203 197 195 193 188 192 180 184 189 198 196 203 199 195 191 188 185 183 177 174 176 175 174 179 176 178 148 179
233 194 205 214 230 273 252 275 259 249 263 234 236 232 230 227 211 197 194 206 211 193 196 196 193 193 194 188 191 193 202 204 164 164 180 188 192 191 184 179 177 179 182 182 179 180 183 188 174
305 236 215 229 214 235 241 213 205 242 249 248 242 238 225 217 218 210 199 203 208 200 190 194 195 198 195 193 196 197 202 196 172 179 185 193 195 192 191 185 185 185 186 185 184 187 191 192 185
203 164 203 211 201 242 222 214 238 245 243 255 253 242 226 223 210 206 198 198 199 196 195 193 197 201 197 197 199 202 204 196 192 186 193 183 193 193 199 187 186 189 191 190 185 189 190 192 192
197 185 173 190 220 246 193 221 223 229 247 257 262 291 236 221 214 214 207 202 198 198 197 191 197 204 198 196 202 202 202 203 200 193 193 195 196 198 189 192 192 196 190 192 192 191 197 194 199
156 210 213 334 235 260 210 286 293 48 7 341 344 340 347 332 234 211 219 216 207 197 199 194 196 201 200 202 201 202 201 204 198 196 193 197 194 190 182 190 194 194 194 193 191 197 196 193 195
211 160 145 186 294 264 284 257 350 359 329 296 345 337 333 328 324 304 226 216 209 205 201 204 200 199 201 200 201 201 199 202 199 185 194 198 192 178 180 190 197 197 196 192 194 200 193 193 196
184 192 220 163 227 312 322 12 348 313 259 322 350 353 357 346 349 348 327 231 197 198 199 199 202 202 202 199 200 201 201 200 196 193 197 199 186 183 189 196 197 197 196 195 195 200 191 192 190
190 184 251 168 186 187 248 251 277 322 6 15 26 29 22 15 13 32 15 19 13 232 191 194 197 198 200 198 195 200 196 193 198 199 199 193 194 190 198 195 196 199 199 198 200 195 196 195 192